User: anonymous   Login
Location: Caltech
(34.1382°N, 118.1253°W)
Time: 14:37:03
(UTC-07:00)
Language:

ASTRO E2 - Orbit

View from above orbital plane
View from above orbital plane
View from above satellite
View from above satellite

Ground track
Ground track

The orbit data is extracted from the following two-line orbital elements,

1 28773U 05025A   17083.57041088 +.00001420 +00000-0 +68486-4 0  9994
2 28773 031.3823 125.0781 0004837 218.6354 141.3947 15.15599436644522
Epoch (UTC): 24 March 2017 13:41:23
Eccentricity: 0.0004837
inclination: 31.3823°
perigee height: 516 km
apogee height: 522 km
right ascension of ascending node: 125.0781°
argument of perigee: 218.6354°
revolutions per day: 15.15599436
mean anomaly at epoch: 141.3947°
orbit number at epoch: 64452

The dashed part of the orbit path shows where the satellite is in the earth's shadow,  

DLR